Flag for U.S.A. Weather past 2 weeks in Chula Vista, California, U.S.A.

Now
72 °F

Overcast.


Feels Like: 74 °F
Forecast: 65 / 78 °F
Wind: 3 mph from North

Location: Brown Field Municipal Airport

Current Time: Jul 29, 2015 at 9:41:45 AM

Latest Report: Jul 29, 2015 at 8:53 AM


Visibility: 10 mi

Pressure: 29.94 "Hg

Humidity: 73%

Dew point: 63 °F

Location of Chula VistaLocation

Historic Weather in Chula Vista — Graph

°F

Chula Vista temperature yesterday

Maximum temperature yesterday: 77 °F (at 11:53 AM)
Minimum temperature yesterday: 61 °F (at 3:53 AM)
Average temperature yesterday: 68 °F

Past Weeks' High & Low Weather Summary

 TemperatureHumidityPressure
High89 °F (Jul 19, 11:53 AM)100% (Jul 20, 9:53 PM)30.06 "Hg (Jul 20, 9:53 PM)
Low61 °F (Jul 28, 3:53 AM)46% (Jul 18, 3:53 PM)29.81 "Hg (Jul 17, 6:53 PM)
Average71 °F77%29.93 "Hg
* Reported Jul 14 8:00 AM — Jul 29 7:53 AM, Chula Vista, Weather by CustomWeather, © 2015

Note: Actual official high and low records may vary slightly from our data, if they occured in-between our weather recording intervals... More about our weather records

Advertising

Chula Vista weather history for previous 24 hours

 ConditionsComfort  
Time TempWeatherWind HumidityBarometerVisibility
7:53 AM
Wed, Jul 29
67 °FOvercast.No wind87%29.93 "Hg9 mi
6:53 AM67 °FLow clouds.No wind85%29.92 "Hg9 mi
6:02 AM67 °FLow clouds.No wind85%29.92 "Hg9 mi
5:53 AM67 °FOvercast.No wind85%29.91 "Hg10 mi
4:53 AM66 °FOvercast.No wind87%29.89 "Hg10 mi
3:53 AM66 °FOvercast.5 mph87%29.89 "Hg10 mi
2:53 AM65 °FOvercast.No wind91%29.90 "Hg10 mi
1:53 AM65 °FPassing clouds.No wind91%29.89 "Hg10 mi
12:53 AM65 °FPassing clouds.No wind87%29.91 "Hg10 mi
11:53 PM
Tue, Jul 28
65 °FClear.5 mph87%29.91 "Hg10 mi
10:53 PM65 °FClear.3 mph87%29.91 "Hg10 mi
9:53 PM65 °FClear.3 mph87%29.91 "Hg10 mi
8:53 PM66 °FClear.3 mph84%29.89 "Hg10 mi
7:53 PM67 °FSunny.6 mph81%29.88 "Hg10 mi
6:53 PM69 °FSunny.7 mph76%29.86 "Hg10 mi
5:53 PM71 °FSunny.8 mph71%29.85 "Hg10 mi
4:53 PM74 °FSunny.9 mph64%29.85 "Hg10 mi
3:53 PM75 °FSunny.9 mph64%29.85 "Hg10 mi
2:53 PM76 °FSunny.9 mph62%29.86 "Hg10 mi
1:53 PM75 °FSunny.10 mph62%29.88 "Hg10 mi
12:53 PM77 °FSunny.8 mph60%29.88 "Hg10 mi
11:53 AM77 °FSunny.10 mph60%29.88 "Hg10 mi
10:53 AM76 °FPassing clouds.N/A62%29.90 "Hg10 mi
9:53 AM70 °FScattered clouds.No wind73%29.90 "Hg10 mi
Weather by CustomWeather, © 2015

See weather overviewHow to use our weather pages